Probability
0 0 0 0 0 0 0 0 0 0 0 1 2 3 5 9 11 13 14 16 17 16 15 15 14 12 11 11 9 7 6 5 5 6 8 9 9 8 9 10 11 10 10 10
0 0 0 0 0 0 0 0 0 0 0 1 2 2 4 7 9 11 12 13 14 14 13 13 13 12 11 10 9 8 5 3 3 4 7 8 8 9 9 10 11 10 10 10
0 1 1 1 0 0 0 0 0 0 1 1 2 2 2 4 7 9 9 10 10 10 9 9 10 10 9 9 8 7 5 2 1 3 4 5 7 10 11 11 11 10 9 9
0 1 1 1 0 0 0 0 0 2 3 3 3 2 2 3 5 7 8 6 7 8 7 7 7 7 7 8 7 7 6 3 1 1 1 2 5 9 12 13 13 12 9 8
0 0 1 1 1 0 0 0 1 3 4 4 3 4 3 4 5 7 7 4 4 6 7 7 8 7 7 7 8 7 5 2 0 0 0 0 3 6 10 12 13 13 10 8
0 0 1 1 1 0 0 0 0 2 3 3 3 3 3 3 5 7 6 4 4 6 7 9 10 9 7 7 8 7 4 1 0 1 1 1 2 4 7 11 13 12 10 8
0 0 0 0 0 0 0 0 0 0 1 1 2 2 2 3 3 4 5 4 5 7 7 9 10 9 7 5 6 5 3 1 1 2 2 2 3 4 6 8 11 11 9 8
0 0 0 0 0 0 0 0 0 0 0 1 3 4 4 3 2 2 3 4 5 7 7 8 9 8 6 4 4 3 2 1 2 3 3 3 3 5 6 8 9 10 10 9
0 0 1 0 0 0 0 0 1 1 2 3 4 6 5 3 1 2 2 3 4 6 8 8 9 8 5 3 3 3 2 2 3 3 3 3 4 6 7 7 7 8 9 9
0 0 0 0 0 0 0 0 1 2 2 3 4 5 5 3 1 1 1 2 3 6 9 10 9 8 6 5 4 3 3 3 3 3 3 3 4 5 7 7 7 7 8 7
0 0 0 0 0 0 0 1 2 2 2 3 3 4 5 4 2 1 0 1 4 6 8 9 9 8 8 7 5 4 3 3 3 3 3 3 3 4 6 7 7 7 6 6
0 0 0 0 0 0 0 1 2 3 3 3 2 2 3 3 2 1 0 1 4 6 7 8 8 9 9 9 7 5 3 2 3 3 3 3 3 3 4 4 4 4 4 4
0 0 0 0 0 0 0 1 2 3 3 3 1 1 2 1 1 0 0 1 3 5 6 6 6 7 8 10 8 5 2 2 2 3 2 3 3 3 3 3 2 1 1 2
0 0 0 0 0 0 0 1 2 3 3 2 1 1 2 1 0 0 0 0 2 3 4 4 4 4 6 9 9 5 2 2 2 1 1 1 2 4 4 4 3 2 1 1
0 0 0 0 0 0 0 1 2 3 3 2 1 1 2 2 1 0 1 1 2 2 2 2 2 3 4 6 8 6 3 2 2 1 0 1 2 4 5 5 5 3 3 3
0 0 0 0 0 0 0 0 1 1 2 1 0 0 1 2 1 1 2 2 1 1 0 1 1 1 2 4 6 6 3 2 1 1 1 2 3 4 5 5 4 3 4 4
0 0 0 0 0 0 0 0 0 0 0 0 0 1 1 2 2 3 2 1 0 0 0 0 0 0 1 2 3 4 3 2 1 2 2 2 2 3 3 3 3 2 3 3
0 0 0 0 0 0 0 0 0 0 0 0 1 2 2 3 3 3 2 1 0 0 0 0 0 0 0 1 2 3 3 3 2 1 1 1 1 1 1 1 1 1 1 1
0 0 0 0 0 0 0 0 0 0 0 1 2 3 3 3 3 3 2 1 0 0 0 0 0 0 0 1 2 3 3 3 2 1 0 0 0 0 0 0 0 0 1 2
0 0 0 0 0 0 0 0 0 0 0 2 3 3 3 3 3 2 1 0 0 0 0 0 0 0 0 0 1 2 3 3 2 1 0 0 0 0 0 0 0 0 1 2
1 0 0 0 0 0 0 0 0 0 0 1 2 3 3 2 1 1 0 0 0 0 0 0 0 0 0 0 0 1 1 2 1 0 0 0 0 0 0 0 0 0 1 2
1 0 0 0 0 0 0 0 0 0 0 0 2 3 3 1 0 0 0 0 0 0 0 0 0 0 0 0 0 0 0 0 0 0 0 0 0 0 0 0 0 0 0 1
1 0 0 0 0 0 0 0 0 0 0 1 2 3 2 1 0 0 0 0 0 0 0 0 0 0 0 0 0 0 0 0 0 0 0 0 0 0 0 0 0 0 0 0
0 0 0 0 0 0 0 0 0 0 0 1 2 3 2 1 0 0 0 0 0 0 0 0 0 0 0 0 0 0 0 0 0 0 0 0 0 0 0 0 0 0 0 0
0 0 0 0 0 0 0 0 0 0 0 1 2 3 2 1 0 0 0 0 0 0 0 0 0 0 0 0 0 0 0 0 0 0 0 0 0 0 0 0 0 0 0 0
0 0 0 0 0 0 0 0 0 0 0 1 3 3 2 1 0 0 0 0 0 0 0 0 0 0 0 0 0 0 0 0 0 0 0 0 0 0 0 0 0 0 0 0
0 0 0 0 0 0 0 0 0 0 1 2 3 3 1 0 0 0 0 0 0 0 0 0 0 0 0 0 0 0 0 0 0 0 0 0 0 0 0 0 0 1 1 1
Wind_Speed
3 3 1 1 1 0 2 6 6 4 4 5 5 4 5 6 6 6 5 4 4 4 3 2 2 1 2 2 2 2 2 2 3 3 3 2 2 2 2 3 3 3 3 3
2 1 1 2 1 0 0 2 4 4 2 3 2 3 3 4 6 6 5 5 4 4 4 3 3 2 2 2 2 2 2 2 3 2 2 2 2 3 2 3 3 3 3 3
2 3 3 2 2 1 1 1 4 4 4 2 2 4 5 4 5 5 5 4 4 4 4 4 4 3 3 3 2 2 3 3 2 2 3 3 3 3 3 3 3 3 3 4
1 3 1 6 2 3 4 2 3 4 3 4 4 3 3 4 5 4 4 4 3 3 3 3 3 3 2 2 2 3 3 3 3 3 3 3 2 3 4 3 3 3 4 4
3 2 3 4 2 1 3 1 1 4 3 3 4 3 1 1 3 4 4 3 3 3 3 2 2 2 2 1 2 3 3 4 4 3 3 3 3 4 4 3 3 3 3 4
3 3 4 5 3 1 5 1 1 3 4 4 4 2 4 3 2 2 2 2 2 2 2 2 2 2 2 1 1 2 2 3 3 3 3 4 4 4 3 3 3 3 3 4
3 3 4 4 3 3 2 5 3 3 4 4 4 5 5 3 2 2 2 3 3 3 2 2 2 2 1 1 2 2 2 2 2 2 3 4 4 3 3 2 2 3 3 3
2 2 5 4 1 3 5 3 2 3 3 3 3 3 3 3 3 2 2 2 3 2 2 2 2 2 1 1 2 2 1 1 2 2 3 2 2 2 2 2 2 3 2 2
5 6 5 1 3 3 4 3 2 2 2 3 3 3 3 3 3 3 3 2 2 2 2 1 2 3 2 2 2 1 1 1 2 2 2 1 2 2 1 1 2 2 2 3
1 2 1 1 2 2 2 3 3 4 4 3 3 4 4 4 3 2 2 2 2 2 2 2 2 2 2 2 1 1 2 2 2 1 1 1 1 1 2 2 2 2 3 3
0 1 1 1 1 1 0 1 2 3 3 3 4 4 4 4 3 3 2 1 2 2 2 3 2 2 2 1 1 1 1 1 1 1 1 1 1 1 1 2 3 4 3 3
4 5 3 4 3 2 2 1 2 3 2 2 3 4 4 3 3 3 2 1 1 2 2 2 2 2 2 2 1 1 1 1 1 1 1 0 0 2 2 2 3 3 3 3
4 3 4 3 2 1 2 2 2 3 3 3 2 3 4 3 3 3 2 2 2 2 2 2 1 1 2 2 2 1 2 1 1 1 1 1 1 0 1 3 3 2 3 3
2 2 1 0 1 1 1 1 2 2 2 3 3 3 3 3 3 2 3 3 3 2 1 1 1 2 2 2 2 1 2 2 2 1 1 1 1 1 1 1 1 2 3 3
2 3 3 2 1 1 2 3 3 2 2 2 2 3 4 4 3 3 2 2 2 1 0 0 1 2 3 1 2 2 1 1 2 1 1 1 1 1 1 1 1 1 2 2
3 2 2 2 2 2 2 3 2 1 2 2 2 2 3 4 3 2 2 2 3 1 1 1 2 3 2 1 1 1 1 2 1 1 1 1 0 1 1 1 1 1 1 2
3 2 2 1 1 1 1 2 3 3 2 2 2 3 3 3 2 1 1 2 2 2 2 1 2 2 1 1 1 1 1 1 1 0 0 1 0 1 1 1 1 1 2 1
3 3 4 4 3 2 1 2 2 2 3 3 3 3 3 4 3 3 3 2 1 0 1 2 2 1 1 1 1 1 1 1 0 0 0 0 1 1 1 1 1 1 1 1
2 2 2 3 3 2 2 2 2 3 3 3 3 3 3 4 4 3 2 2 2 2 3 3 2 1 1 2 1 1 1 1 0 0 0 1 1 1 0 0 1 1 0 0
2 2 2 1 1 1 2 2 2 2 2 3 3 3 2 2 3 3 2 2 3 4 3 2 2 1 1 1 1 1 1 1 1 1 1 0 0 1 1 1 1 1 0 0
2 2 2 2 2 2 2 2 3 3 2 3 3 4 3 3 3 3 3 2 3 3 2 2 1 1 1 1 1 1 1 1 1 1 1 1 1 1 1 1 1 0 0 0
1 1 2 2 2 2 2 3 3 4 3 3 3 3 3 2 2 2 3 3 3 3 2 1 1 1 1 1 1 1 1 0 0 0 1 1 1 1 1 1 1 0 0 0
1 1 1 2 2 2 2 2 3 4 4 4 4 4 4 4 3 3 3 3 3 3 2 1 2 2 3 2 1 1 1 0 0 0 1 1 1 1 1 1 1 1 1 1
1 2 2 2 2 1 2 3 3 3 3 3 4 4 4 3 2 3 4 4 4 3 2 2 2 3 3 1 1 1 1 0 0 0 1 1 1 1 0 0 0 0 1 1
1 1 1 1 1 2 3 3 1 1 2 2 3 3 3 4 4 4 3 3 4 4 2 2 3 3 2 1 1 1 1 1 1 1 1 1 1 1 1 0 0 1 1 1
1 2 2 2 2 2 2 2 2 2 2 2 2 2 2 2 3 3 2 3 4 4 3 2 2 3 2 2 2 2 1 1 1 1 1 1 1 1 0 0 0 1 1 1
2 1 1 1 1 1 1 1 1 2 2 2 2 2 2 2 2 2 3 2 2 2 2 2 2 2 3 2 2 2 1 1 1 1 1 0 1 1 1 1 1 1 1 1
Wind_Direction
212 229 185 260 291 165 160 173 174 202 187 216 213 191 172 152 139 132 132 137 149 155 152 150 147 157 157 165 181 187 180 185 206 209 216 222 227 236 239 226 217 213 206 209
337 347 48 12 340 301 184 149 152 148 210 215 170 120 120 137 140 139 149 156 160 160 160 167 170 179 184 178 201 202 208 221 221 210 213 224 231 230 230 231 226 209 201 199
294 314 37 335 290 151 139 166 154 183 215 168 129 146 158 156 152 161 168 168 168 175 184 185 185 182 196 206 206 205 221 232 234 229 223 228 231 227 224 225 218 208 208 201
127 39 244 247 250 110 102 63 128 152 170 166 168 166 167 160 158 165 177 184 186 183 182 190 190 192 191 200 208 213 219 232 236 232 231 230 227 230 230 227 219 216 213 205
116 144 266 293 329 109 110 15 76 133 129 111 109 71 7 222 159 174 182 183 185 180 172 167 179 186 181 214 232 222 225 233 237 232 230 224 227 235 232 220 225 225 213 202
130 154 226 252 298 61 97 3 298 134 148 146 111 116 248 229 167 162 148 151 159 147 124 143 203 183 165 208 219 240 241 236 238 231 230 232 231 232 229 216 222 222 219 211
151 189 248 259 295 45 118 232 251 164 151 151 177 200 209 185 165 155 153 159 148 143 155 188 206 179 171 202 238 257 268 249 233 230 232 236 238 230 223 217 216 220 222 219
139 168 247 276 69 135 203 215 182 160 156 155 171 159 152 159 165 147 130 147 157 156 183 211 197 170 179 243 264 277 286 282 259 246 243 238 233 231 219 206 210 220 218 223
177 205 234 231 157 174 160 150 159 140 135 132 144 159 161 169 170 168 164 173 168 166 186 237 216 181 190 246 269 277 296 278 274 270 255 233 219 217 213 201 201 215 211 220
124 250 246 103 103 115 143 158 160 144 144 146 165 181 168 166 176 183 193 184 161 152 182 242 245 210 209 234 257 266 263 257 261 270 290 300 247 207 191 197 205 213 215 221
195 269 355 311 182 173 141 146 149 148 157 170 157 165 166 169 176 180 176 188 170 173 199 231 233 233 240 233 224 245 276 270 269 260 260 316 334 294 227 229 216 208 217 212
217 223 189 224 221 178 162 172 156 137 121 137 145 155 154 159 166 159 163 182 187 203 213 232 225 225 239 233 218 201 229 275 275 277 287 280 338 339 338 297 273 231 211 202
206 212 186 200 188 154 170 170 137 131 143 138 142 143 149 158 165 161 164 179 199 216 215 213 221 246 249 234 211 206 215 229 243 231 227 239 220 212 310 329 330 301 264 235
171 111 93 241 230 171 122 115 111 107 125 140 143 141 149 152 154 167 196 209 202 195 205 206 220 261 260 226 192 208 218 223 211 203 204 217 225 220 198 213 308 315 306 280
205 162 186 198 126 79 86 77 72 81 108 124 141 149 154 155 170 192 207 187 158 142 164 206 262 281 281 219 187 211 220 226 219 215 210 208 214 211 220 224 238 291 320 322
194 160 136 119 113 96 91 91 98 169 151 145 159 159 165 167 171 177 173 152 144 176 221 226 257 269 275 208 182 202 231 256 241 201 211 208 211 221 230 231 234 237 257 270
146 160 144 144 145 135 145 166 179 193 173 163 177 164 144 136 130 148 197 194 185 199 213 220 253 270 269 197 184 209 219 282 317 68 200 215 218 233 235 231 233 237 249 260
164 180 176 175 183 193 208 213 199 187 185 185 167 154 151 155 167 190 208 197 158 339 270 244 240 251 271 231 197 196 185 186 178 212 238 231 256 250 243 237 243 252 281 306
141 160 177 168 166 179 202 208 201 200 195 174 160 169 178 179 179 185 178 155 167 229 264 259 249 241 264 261 222 183 171 164 188 252 278 309 314 294 275 248 256 260 228 75
152 165 163 154 149 173 214 208 180 175 197 178 167 176 186 198 188 174 163 191 225 227 234 237 228 239 246 255 221 161 168 177 197 230 266 280 258 271 277 262 244 242 207 152
147 166 165 181 192 191 213 203 179 184 193 180 180 193 201 211 191 172 167 218 256 244 234 238 225 226 224 227 177 146 162 204 229 226 229 248 256 265 265 250 246 242 208 211
160 178 188 189 195 222 231 203 191 188 190 197 208 202 189 194 196 189 204 215 229 228 214 220 224 199 169 146 125 125 129 141 282 303 276 262 251 262 259 242 236 240 219 180
244 217 196 196 194 216 241 226 208 195 192 198 202 201 197 200 193 185 219 235 221 211 194 202 189 163 157 144 123 115 101 67 344 316 289 288 256 240 241 235 215 218 201 157
252 240 228 218 194 203 246 242 221 204 201 204 205 201 191 188 211 219 210 204 197 191 189 203 185 173 170 164 157 160 172 199 249 281 291 282 273 272 249 216 202 234 186 144
240 247 234 193 197 221 228 228 225 218 216 210 212 210 201 191 194 207 200 193 187 181 193 199 191 199 192 180 183 193 196 205 213 230 240 234 240 253 266 240 206 183 188 160
228 226 226 220 215 219 212 198 204 214 209 207 224 223 213 200 187 184 181 180 171 181 199 206 201 205 201 192 199 201 199 207 225 241 258 245 220 223 251 258 232 179 168 158
234 227 234 269 263 220 188 178 191 211 195 183 207 230 215 193 179 177 170 168 176 191 202 208 203 197 194 191 194 200 192 184 182 187 197 209 214 207 195 182 174 171 161 152